This demonstration page uses our WeatherBlox Daily Observations layout. Learn more.

Left ArrowRight Arrow

Hourly Observations for September 17, 2019

Temp ( °F °C ) Dew Point ( °F °C ) Humidity (%) Winds ( mph kmh ) Pressure ( in mb ) Visibility ( mi km ) Precip ( " mm )
12:53 am 00:53 Clear 71 21.7 66 18.9 84 84 Calm 29.98 1015 10 16 0.00 0.00
1:53 am 01:53 Clear 70 21.1 67 19.4 90 90 Calm 29.98 1015 10 16 0.00 0.00
2:53 am 02:53 Clear 69 20.6 65 18.3 87 87 Calm 29.97 1015 10 16 0.00 0.00
3:53 am 03:53 Clear 68 20 65 18.3 90 90 Calm 29.96 1015 10 16 0.00 0.00
4:53 am 04:53 Clear 68 20 65 18.3 90 90 Calm 29.96 1014 10 16 0.00 0.00
5:53 am 05:53 Clear 67 19.4 64 17.8 91 91 Calm 29.96 1015 10 16 0.00 0.00
6:53 am 06:53 Clear 67 19.4 64 17.8 91 91 Calm 29.98 1015 10 16 0.00 0.00
7:53 am 07:53 Sunny 69 20.6 64 17.8 84 84 Calm 30.00 1016 10 16 0.00 0.00
8:53 am 08:53 Sunny 75 23.9 66 18.9 74 74 Calm 30.00 1016 10 16 0.00 0.00
9:53 am 09:53 Sunny 80 26.7 65 18.3 60 60 Calm 30.01 1016 10 16 0.00 0.00
10:53 am 10:53 Sunny 85 29.4 65 18.3 51 51 Calm 30.01 1016 10 16 0.00 0.00
11:53 am 11:53 Sunny 90 32.2 64 17.8 42 42 Calm 30.01 1016 10 16 0.00 0.00
12:53 pm 12:53 Sunny 92 33.3 64 17.8 40 40 VRB 3 6 29.99 1016 10 16 0.00 0.00
1:53 pm 13:53 Sunny 93 33.9 64 17.8 38 38 VRB 7 11 29.97 1015 10 16 0.00 0.00
2:53 pm 14:53 Sunny 94 34.4 63 17.2 36 36 WNW 6 9 29.94 1014 10 16 0.00 0.00
3:53 pm 15:53 Sunny 95 35 63 17.2 35 35 WNW 10 17 29.93 1013 10 16 0.00 0.00
4:53 pm 16:53 Mostly Sunny 95 35 63 17.2 35 35 NW 10 17 29.91 1013 10 16 0.00 0.00
5:53 pm 17:53 Sunny 94 34.4 62 16.7 35 35 NW 6 9 29.91 1013 10 16 0.00 0.00
6:53 pm 18:53 Mostly Sunny 89 31.7 65 18.3 45 45 NW 3 6 29.91 1013 10 16 0.00 0.00
7:53 pm 19:53 Partly Cloudy 87 30.6 66 18.9 50 50 Calm 29.91 1013 10 16 0.00 0.00
8:53 pm 20:53 Cloudy 86 30 65 18.3 49 49 VRB 6 9 29.92 1013 10 16 0.00 0.00
9:20 pm 21:20 Cloudy with Nearby Thunderstorms 84 28.9 64 17.8 51 51 Calm 29.90 1013 10 16 0.00 0.00
9:35 pm 21:35 Mostly Cloudy 84 28.9 64 17.8 51 51 Calm 29.91 1013 10 16 0.00 0.00
9:53 pm 21:53 Mostly Cloudy 82 27.8 66 18.9 58 58 Calm 29.93 1014 10 16 0.00 0.00
10:53 pm 22:53 Clear 77 25 68 20 74 74 Calm 29.94 1014 10 16 0.00 0.00
11:53 pm 23:53 Partly Cloudy 76 24.4 69 20.6 79 79 Calm 29.94 1014 10 16 0.00 0.00

Powered by AerisWeather